Theta_e
291 291 291 292 293 297 301 302 302 304 304 303 303 303 302 301 300 299 299 298 298 297 297 298 297 296 297 295 292 291 291 291 291 291 291 292 292 293 292 293 293 292 292 292 291 290 288 287 287 286 286 287 287 286 286 286 288 289 289 289 289 287 285 283 283 285 286 284 284 283 283 283 285 282 281 281 280 280 279 280 280 280 280 280 280
289 290 290 290 293 296 300 300 301 302 303 302 302 302 302 301 300 298 299 299 298 298 298 298 298 298 296 293 292 292 291 290 289 290 290 290 291 291 290 291 291 290 290 289 288 287 286 286 286 285 285 286 285 285 285 287 286 287 287 285 283 284 281 281 282 285 286 282 282 282 283 283 283 281 281 280 280 280 280 280 280 280 279 279 279
290 291 290 291 292 296 299 300 301 303 302 302 302 302 301 300 300 298 298 298 299 299 298 296 294 294 293 291 290 289 289 289 289 289 289 288 288 289 289 289 289 288 287 287 287 286 286 285 285 284 284 286 284 283 283 283 283 284 286 286 283 281 281 282 281 281 283 282 282 284 282 282 286 279 279 280 279 279 279 279 280 279 279 279 279
290 290 290 290 292 295 298 299 301 302 300 300 301 301 301 300 299 298 298 298 298 297 294 293 292 291 291 290 289 288 287 288 288 288 288 288 287 287 287 286 285 285 285 286 285 285 284 284 283 283 283 283 284 283 282 282 282 283 283 284 285 281 278 281 281 280 282 285 285 283 281 281 279 278 276 279 277 277 279 278 279 278 278 279 279
291 290 290 290 291 294 298 299 301 301 300 300 301 301 301 299 299 299 298 296 295 294 292 291 290 289 289 288 289 287 287 287 287 286 286 287 286 284 283 283 284 284 284 284 285 283 283 283 283 282 282 282 283 282 282 281 280 280 281 282 280 282 278 277 280 280 279 281 285 276 277 278 276 276 275 279 277 276 277 277 280 278 278 279 278
292 291 291 291 292 294 297 299 300 301 301 301 301 301 301 300 299 298 297 295 293 292 292 291 290 289 288 287 287 286 285 286 286 285 285 285 283 282 283 283 283 283 283 283 283 283 283 282 282 282 282 282 282 282 281 281 280 280 279 280 280 280 281 278 278 280 280 280 279 277 278 279 275 276 275 277 276 276 276 277 276 276 276 277 278
290 291 291 291 291 293 296 299 300 300 300 300 300 299 300 300 298 297 295 294 293 292 292 292 290 290 290 291 289 288 286 285 285 285 284 283 283 281 281 282 282 282 282 282 282 282 282 282 282 282 282 282 282 281 281 280 280 280 280 280 280 282 280 278 279 279 278 279 279 278 278 277 275 276 275 275 275 276 275 276 275 276 275 276 277
291 291 291 291 292 293 296 299 300 301 300 299 299 298 298 298 297 295 294 293 292 292 292 292 291 291 292 291 290 288 287 285 285 284 284 283 282 281 281 281 281 281 282 281 281 282 282 281 281 281 281 281 282 281 280 280 280 281 280 279 279 279 279 280 277 276 278 278 279 277 278 278 277 277 274 276 274 274 275 274 275 275 275 276 276
291 290 290 291 291 293 296 299 300 300 299 299 298 296 296 296 295 294 293 292 292 292 292 292 292 292 291 290 287 286 285 284 285 285 283 282 281 280 280 280 280 280 280 281 280 281 282 281 281 281 281 280 281 280 280 280 280 279 279 279 279 278 279 278 278 277 278 277 277 276 277 276 276 276 275 276 274 273 274 273 273 275 274 275 275
290 291 291 291 292 293 296 298 299 299 298 298 296 294 294 294 294 293 292 292 291 291 292 291 291 291 290 289 286 284 284 284 284 283 282 280 280 280 279 280 280 280 280 280 280 280 281 281 280 280 280 280 281 279 279 279 279 279 279 279 279 278 278 278 278 277 278 277 277 277 276 276 276 276 275 274 275 273 275 274 274 273 273 274 275
289 289 290 291 290 292 294 297 298 298 296 296 294 293 293 293 293 292 292 291 291 291 291 290 289 289 289 288 286 284 284 283 282 281 280 280 280 279 279 280 279 279 279 279 279 280 280 280 280 279 280 281 280 279 279 279 279 279 279 279 279 279 279 279 279 278 277 277 276 276 277 276 275 275 275 275 273 272 272 273 273 274 273 273 274
287 288 288 289 289 290 292 295 296 296 295 295 293 292 292 293 292 291 290 290 290 290 289 289 288 288 288 287 286 285 284 283 282 281 280 280 280 280 279 279 279 279 279 279 279 279 280 279 280 279 279 279 279 278 279 279 278 279 278 278 278 278 278 278 277 277 277 277 276 276 276 276 276 276 276 275 275 274 273 272 273 273 273 273 275
287 288 288 289 290 290 291 294 294 294 294 294 292 292 292 292 291 290 288 289 289 289 288 287 287 286 287 286 285 285 285 284 283 281 281 281 280 280 279 279 279 279 278 279 279 279 280 279 279 279 279 279 279 278 278 278 278 278 278 278 278 277 277 277 277 276 277 277 276 276 276 277 276 276 276 275 275 274 273 272 273 273 272 272 273
287 288 288 289 290 290 292 294 294 294 295 294 292 292 292 291 291 290 288 288 288 288 287 286 286 287 287 286 286 285 284 284 283 282 281 281 281 280 280 280 279 280 279 279 279 279 279 279 279 279 279 279 279 278 278 278 278 278 278 278 277 277 277 277 277 276 276 276 276 276 276 276 275 276 276 276 275 275 274 272 272 273 273 272 272
287 288 288 289 290 290 291 293 294 294 295 294 292 292 291 291 290 290 288 288 288 287 286 286 286 286 286 286 286 285 284 283 282 282 281 281 280 280 280 280 280 279 279 279 279 279 279 279 279 279 279 279 278 278 279 278 278 278 278 277 277 277 277 277 276 276 276 276 276 276 276 276 275 275 275 276 275 275 274 274 273 272 270 272 271
286 287 288 288 289 290 290 292 293 294 294 294 293 291 291 291 289 290 289 287 287 287 286 286 286 285 285 285 285 285 284 283 282 282 280 281 280 280 280 279 279 279 279 279 279 279 279 279 279 279 278 278 278 278 278 277 277 277 277 277 277 278 277 276 276 276 276 276 275 275 275 275 275 275 275 275 275 275 276 275 274 272 271 269 270
286 287 288 288 288 289 290 291 292 293 294 294 293 292 291 290 288 289 289 288 287 286 286 286 285 285 284 284 284 283 283 281 281 280 280 280 280 279 279 278 278 279 279 279 279 279 279 279 278 278 278 278 278 277 277 277 277 278 277 277 276 276 276 276 276 275 275 275 275 275 275 275 274 275 275 275 275 275 275 274 273 272 273 271 268
287 287 287 288 288 289 289 290 291 292 293 293 293 292 291 290 289 288 288 287 286 286 286 285 285 284 284 283 283 282 282 281 281 280 280 280 279 279 278 278 278 279 280 280 279 279 278 279 278 278 278 277 277 277 277 277 277 277 276 276 276 276 276 275 275 275 275 275 275 275 274 274 274 274 274 274 274 274 274 274 273 274 273 271 271
286 286 286 287 287 288 289 290 290 291 292 292 292 291 290 289 289 288 287 287 286 286 286 285 285 285 284 283 282 281 281 281 280 280 280 280 279 279 278 279 279 279 279 279 278 278 278 278 278 277 277 277 277 276 276 276 276 276 276 275 275 276 275 275 274 275 275 275 274 273 273 273 273 273 273 274 274 274 274 273 273 273 274 272 272
286 286 287 287 287 288 288 289 289 290 290 291 290 289 289 289 288 288 287 286 286 285 285 284 284 284 284 283 282 281 281 280 280 280 280 280 279 279 279 278 279 279 279 278 278 278 278 277 277 277 277 276 276 276 276 276 276 276 275 275 275 275 275 274 274 274 274 274 273 273 273 273 273 273 272 273 273 274 273 273 272 273 272 272 272
286 286 286 286 287 287 287 288 289 288 289 289 289 289 289 289 289 288 287 285 285 285 284 284 283 283 282 281 281 281 280 280 280 280 280 280 279 279 279 279 279 278 278 278 278 278 277 277 277 277 276 276 276 275 275 275 275 275 275 275 274 274 274 274 275 274 273 273 273 273 272 272 272 272 272 272 272 272 272 272 272 271 271 271 271
286 286 286 286 286 286 286 286 287 287 287 287 287 287 287 288 289 288 287 285 285 284 283 283 283 283 282 281 281 281 281 280 280 280 279 279 279 279 278 278 278 278 278 278 278 277 277 277 276 276 276 276 275 275 275 275 275 275 274 274 274 274 274 273 274 273 273 273 273 272 272 272 272 272 272 272 272 272 271 271 271 271 270 270 271
286 286 286 285 286 286 286 287 287 287 287 287 286 287 287 287 287 287 287 286 285 284 283 283 283 282 282 281 281 281 280 280 280 279 279 279 278 278 278 278 278 277 277 277 277 277 277 277 276 276 277 276 276 275 276 276 275 275 274 274 275 275 274 274 273 273 273 272 271 271 271 271 271 271 271 271 271 271 271 271 271 271 270 270 271
284 284 284 285 285 285 285 286 286 286 286 286 286 286 286 286 287 287 286 286 285 284 283 283 282 282 282 281 281 281 280 280 279 279 279 278 278 278 278 278 278 277 277 277 277 277 277 277 277 276 276 276 276 276 275 276 275 275 275 274 274 274 274 274 274 273 272 272 271 271 271 271 271 270 270 270 271 271 271 270 270 270 270 270 270
283 284 284 284 284 284 285 286 286 287 287 287 286 286 285 286 286 286 286 286 285 284 283 282 282 282 281 281 281 280 280 280 279 279 278 278 279 279 279 278 278 277 278 278 277 277 277 277 277 276 276 276 276 275 275 275 275 275 275 275 274 274 274 274 273 273 274 272 271 271 271 270 270 270 269 269 270 269 270 270 269 270 270 270 270
284 283 283 283 284 285 285 285 286 286 287 287 286 286 285 286 286 287 286 285 285 284 283 282 282 282 281 281 281 280 280 280 280 279 279 279 279 279 279 278 278 278 278 278 277 277 277 277 277 276 276 276 276 275 275 275 274 275 275 275 274 274 274 273 273 273 273 271 271 271 271 270 270 270 270 270 269 269 269 269 269 269 269 269 269
284 284 284 283 283 284 285 285 286 286 286 287 286 286 285 285 285 286 286 286 285 284 283 282 282 282 281 281 281 281 281 280 280 280 280 280 279 279 279 278 278 278 277 277 277 277 277 277 277 276 276 276 275 275 275 275 274 274 274 274 274 274 273 273 273 272 272 271 271 271 271 271 271 271 270 270 269 269 269 268 269 269 269 268 268
283 283 283 284 284 284 284 284 285 286 286 286 286 286 286 285 285 285 286 285 285 284 283 282 282 282 282 281 282 281 281 281 281 280 280 280 279 279 279 278 278 278 278 278 277 277 277 277 276 276 276 275 275 275 275 274 274 274 274 274 274 274 273 273 272 272 272 271 271 271 271 271 271 271 271 270 270 269 269 269 269 269 269 269 268
283 284 284 284 284 284 284 284 285 285 285 286 286 286 285 285 285 284 284 285 285 284 284 283 283 282 282 282 282 282 282 281 281 280 280 279 279 279 279 278 278 278 278 278 278 277 277 276 276 275 275 275 275 275 274 274 274 274 274 274 274 273 273 273 272 272 271 271 271 271 271 271 271 273 275 274 273 273 270 268 269 269 268 268 266
284 285 285 285 285 285 284 284 284 284 285 285 286 285 285 285 284 284 284 284 284 284 284 284 283 283 283 283 282 282 282 281 281 280 280 280 279 279 279 278 278 278 278 277 277 277 276 276 275 275 275 275 275 275 276 278 277 275 274 274 274 274 273 273 273 272 271 271 271 271 272 274 275 275 276 277 277 277 276 272 270 269 268 267 262
286 286 285 285 285 285 284 284 284 284 285 285 286 286 285 285 284 284 284 284 284 284 284 284 284 284 284 283 282 282 282 281 281 280 280 280 279 279 279 278 278 277 277 277 276 276 276 276 275 275 274 274 274 274 278 280 280 279 275 274 274 273 273 273 273 272 271 272 272 272 271 273 275 275 275 277 278 279 279 279 278 276 274 269 265
288 287 286 285 285 285 284 284 284 284 284 285 285 285 285 284 285 284 284 284 283 284 284 284 284 284 284 283 282 282 281 281 281 280 280 280 279 279 278 278 277 277 277 276 276 276 276 275 275 275 274 274 274 277 280 281 282 281 278 274 274 273 273 273 272 272 272 271 271 271 271 270 271 271 271 273 276 279 280 280 280 279 279 278 276
290 289 287 286 286 285 285 285 285 285 285 285 285 285 285 285 284 284 283 283 283 284 284 284 284 284 283 283 282 282 281 281 281 280 280 280 279 279 278 277 277 277 276 275 276 276 275 275 275 274 274 274 274 278 281 282 283 283 282 277 274 274 273 273 272 272 271 271 270 270 269 270 270 273 273 271 270 270 276 278 278 279 279 279 279
290 289 288 287 286 286 286 286 285 285 285 285 285 285 285 285 285 284 283 283 283 283 284 283 283 283 283 282 282 282 281 281 281 281 280 279 279 278 278 278 278 277 276 276 276 276 276 275 275 274 274 274 274 278 281 283 283 284 284 280 273 273 273 272 272 271 271 270 270 269 268 268 269 270 271 271 270 270 269 269 270 269 269 272 276
291 289 287 287 286 285 285 285 284 284 284 284 284 284 284 284 284 283 283 283 283 283 283 283 282 283 283 282 282 282 281 281 281 281 280 279 279 278 278 278 277 277 276 276 276 276 275 275 275 275 274 274 274 278 281 283 284 284 284 283 274 273 272 272 271 271 271 270 270 270 269 269 269 269 270 271 269 269 267 267 266 266 267 268 268
291 291 289 287 286 286 286 285 285 284 284 284 284 283 283 283 283 283 282 283 282 282 282 283 283 283 283 283 282 282 282 282 281 280 280 279 279 279 278 278 277 277 277 277 276 276 276 275 275 274 274 274 274 279 281 283 284 284 285 283 275 274 272 271 270 271 271 271 270 270 270 269 269 268 271 275 274 269 267 264 264 264 265 266 268
290 288 289 288 287 286 286 285 284 284 283 283 283 283 283 281 281 281 281 281 282 282 282 283 283 283 283 283 283 282 282 281 281 280 279 279 279 278 278 278 277 277 277 276 276 276 276 275 275 274 274 274 274 278 281 282 283 285 284 282 277 275 274 272 272 272 272 271 271 270 270 269 269 268 272 276 277 276 267 265 264 264 265 266 268
286 285 285 284 284 284 284 285 284 283 283 283 283 283 282 281 282 282 282 282 282 282 283 283 283 283 283 283 283 282 282 281 281 280 280 280 280 279 279 279 278 277 277 277 276 276 275 275 275 274 274 274 275 277 281 282 283 284 284 281 278 275 274 274 273 274 273 272 272 273 272 270 269 269 273 276 277 277 272 269 268 268 268 269 270
284 285 284 283 284 285 284 284 284 283 283 283 283 283 283 282 282 282 282 282 282 283 283 283 284 284 283 282 282 282 282 282 281 281 281 280 280 280 279 279 278 278 277 276 275 275 275 275 275 275 276 275 276 277 280 282 283 284 283 281 278 276 275 274 273 273 273 273 272 273 274 273 272 271 275 276 278 277 273 272 271 271 270 270 271
282 284 284 284 284 284 283 283 283 283 283 283 284 284 283 283 282 282 282 282 283 283 284 284 283 283 283 283 283 283 283 282 282 281 281 281 280 279 278 277 277 277 276 276 276 275 275 275 275 274 275 275 275 275 277 281 282 283 284 281 278 276 275 274 273 273 272 272 272 271 273 276 277 277 277 277 278 279 275 272 271 270 270 270 272
282 283 284 284 284 285 284 284 284 283 284 284 284 284 283 283 283 282 282 283 283 283 283 283 283 283 283 283 283 283 282 282 282 281 281 279 279 279 278 277 276 276 276 275 275 274 274 274 274 273 273 273 273 273 273 279 281 282 283 283 279 277 276 275 273 272 272 272 271 271 270 274 276 277 278 279 279 279 279 275 272 271 271 273 275
280 282 283 283 283 282 282 282 283 284 285 285 285 284 283 282 282 282 283 283 283 283 283 283 283 283 282 282 282 282 282 282 281 280 279 278 278 278 278 277 275 274 273 272 270 271 272 272 271 270 269 270 271 273 270 275 279 281 283 284 281 277 276 274 273 272 272 271 271 271 269 271 275 276 277 278 280 280 280 278 276 278 278 278 276
281 281 280 283 282 281 281 280 282 283 284 285 285 284 283 282 282 283 283 283 283 283 283 282 282 282 281 281 281 280 280 280 279 279 278 277 276 275 274 273 273 272 272 271 271 270 270 270 270 270 269 269 269 269 274 272 276 279 281 282 283 281 281 276 273 273 273 272 271 269 269 273 275 276 277 278 279 280 280 279 280 281 281 280 280
278 278 280 280 280 279 279 278 281 283 284 285 285 284 283 282 282 281 281 281 282 282 282 281 281 280 279 279 279 278 278 277 277 277 277 276 274 274 272 272 272 272 271 271 271 270 269 269 270 271 271 270 270 269 272 275 273 276 279 280 281 283 283 278 274 274 273 272 270 269 269 274 276 276 277 278 279 279 278 279 280 281 281 280 275
279 278 277 279 280 279 278 278 279 280 281 283 283 283 281 281 280 279 280 280 279 279 279 278 278 277 277 277 276 276 276 276 276 277 276 275 273 272 272 270 271 271 271 271 271 270 270 270 270 271 272 273 270 268 267 270 275 275 277 278 279 281 282 283 280 276 275 273 275 276 276 276 276 277 278 278 278 278 279 280 280 280 279 276 269
276 276 276 277 278 278 278 276 273 272 274 273 276 280 279 277 274 275 276 276 276 276 277 276 276 276 276 275 275 274 275 275 275 276 276 276 274 273 273 271 271 271 271 271 271 271 270 270 270 272 272 272 269 265 265 265 269 272 274 277 278 279 279 280 280 280 280 280 279 279 279 279 278 277 275 274 274 274 277 278 279 278 277 271 269
277 275 275 277 278 277 276 276 275 270 270 271 271 271 273 274 273 274 274 275 275 276 276 275 275 275 274 275 275 274 273 273 273 273 274 274 274 273 273 271 271 271 271 271 271 270 270 270 270 271 271 269 268 265 265 262 263 264 266 268 271 273 277 278 277 276 277 278 280 280 278 279 278 278 277 277 276 276 275 275 275 274 271 269 268
272 272 274 276 277 277 274 274 274 270 270 270 270 270 269 271 271 273 273 274 275 275 275 274 273 273 273 273 274 271 273 273 273 273 273 272 271 273 273 272 271 271 271 270 270 270 270 270 270 270 268 266 268 266 265 264 263 262 263 264 265 266 267 268 270 272 273 274 275 277 278 278 277 276 276 275 275 274 273 273 272 270 268 267 267
274 272 273 277 275 275 274 274 272 269 270 270 268 266 266 271 272 271 273 274 274 272 272 271 270 271 271 271 273 273 273 273 271 270 271 272 273 272 273 273 270 270 272 272 271 270 270 269 268 268 267 268 268 268 268 271 267 269 266 264 263 264 265 266 269 273 272 271 272 272 272 274 274 274 273 273 272 270 269 269 269 267 264 263 264
271 272 271 272 272 273 273 272 270 268 270 270 267 265 265 267 268 270 273 274 273 272 271 270 270 271 270 269 269 268 267 269 270 270 269 267 270 275 272 270 268 273 276 277 276 270 266 266 268 269 268 270 270 267 275 276 276 276 276 275 273 272 272 269 270 274 274 270 270 269 270 271 272 272 271 271 270 269 268 267 266 267 265 263 262
273 273 272 272 271 271 271 271 270 268 269 269 268 265 265 266 268 270 273 273 273 272 269 268 269 268 268 269 268 267 268 268 268 267 268 268 266 265 276 277 276 274 276 277 278 278 278 276 271 268 269 276 276 277 277 277 277 277 278 278 278 277 277 277 276 272 270 270 269 268 269 270 271 271 271 271 271 269 268 267 267 266 266 265 265
Wind_Speed
3 7 8 8 9 7 7 7 6 5 6 7 7 7 7 8 7 6 6 8 7 7 7 8 8 7 5 5 6 3 3 3 5 3 3 5 7 7 6 6 6 7 6 7 7 8 7 7 7 5 5 7 9 8 7 8 7 9 9 7 12 11 6 4 3 3 11 8 6 6 7 5 5 6 8 7 7 6 6 7 6 8 8 8 7
4 5 7 7 7 8 8 7 7 9 8 8 9 8 8 8 9 8 6 6 6 6 7 6 4 5 7 5 7 5 4 2 5 4 4 5 6 7 6 5 6 6 6 6 7 8 9 7 7 7 7 8 8 6 6 7 8 8 10 8 5 6 4 3 3 1 4 6 7 3 3 3 3 6 8 7 6 7 6 7 7 7 7 5 5
6 8 7 8 9 9 9 9 8 8 8 9 9 9 9 8 8 8 8 8 6 5 5 5 3 5 5 6 5 6 5 3 4 4 4 5 5 6 5 5 6 6 5 5 7 7 8 8 7 6 6 8 9 8 7 7 5 6 6 11 8 4 5 4 4 2 5 3 3 5 1 2 1 4 2 4 5 5 5 6 6 6 6 5 5
11 11 12 10 10 9 9 10 9 8 8 8 9 11 9 8 8 9 8 7 7 5 5 6 7 8 8 7 5 4 6 5 7 6 7 7 8 5 5 3 4 5 4 5 6 6 6 8 7 6 6 4 8 9 7 7 6 6 7 7 10 7 3 5 4 3 3 7 2 0 2 3 2 1 1 2 2 2 6 5 5 5 5 5 5
12 10 9 11 12 14 14 11 9 10 10 10 10 10 8 10 9 10 8 8 7 8 8 8 9 10 9 9 8 10 7 5 6 6 5 5 5 5 3 3 3 5 5 4 6 7 5 6 7 6 7 5 6 8 7 6 5 4 6 6 4 9 5 3 5 4 5 3 6 4 2 1 1 2 1 1 4 3 4 5 6 7 7 6 6
14 15 16 15 13 9 9 12 12 11 12 11 9 9 9 9 9 9 8 7 8 9 10 9 10 12 10 9 8 6 7 5 7 9 7 6 5 1 4 3 3 4 4 4 5 5 6 6 6 7 7 6 6 8 7 6 5 6 4 7 7 4 11 6 4 3 6 7 5 2 1 2 5 2 2 1 1 1 1 2 5 5 4 5 5
7 7 9 11 12 12 12 13 14 13 10 8 8 8 10 10 10 9 9 8 7 9 9 8 8 8 11 13 13 12 11 2 4 4 5 5 5 4 3 4 3 4 4 4 4 5 6 6 7 7 7 7 6 8 7 6 5 5 4 7 7 8 8 7 8 5 4 7 5 5 7 5 3 5 2 2 2 2 2 2 3 4 3 4 6
11 12 12 12 13 16 18 18 14 13 10 9 9 8 10 11 11 10 7 8 8 9 10 8 9 9 6 4 8 10 11 11 8 6 4 4 6 4 4 4 3 3 5 4 4 5 6 7 6 7 8 6 6 7 7 6 6 5 5 7 6 4 7 11 6 3 7 1 2 5 6 6 7 8 3 3 4 4 1 3 0 3 3 3 3
9 10 13 15 17 17 14 13 12 10 10 11 10 9 8 9 10 9 9 8 8 10 10 8 6 7 7 7 7 5 7 8 8 5 6 4 6 4 4 4 4 3 3 4 4 5 5 7 7 7 7 6 6 6 5 5 7 7 7 7 7 6 5 5 7 6 8 6 6 4 7 6 6 4 2 3 3 3 0 0 3 3 2 1 3
7 10 11 12 12 11 9 7 9 10 9 9 7 7 8 9 10 11 10 8 8 10 9 8 7 6 7 7 11 9 8 7 8 11 7 5 6 5 4 5 5 4 3 3 5 4 7 7 7 7 7 6 5 6 6 6 5 6 6 7 7 8 5 6 8 6 6 4 3 6 5 3 4 3 3 4 4 3 4 2 1 1 4 2 1
7 7 7 8 6 7 7 11 11 9 8 9 9 9 9 10 10 11 11 9 9 10 10 10 7 7 8 9 12 14 12 12 10 7 8 6 7 6 6 5 4 5 4 3 4 6 7 5 7 6 6 6 7 6 6 7 6 7 7 7 8 9 7 8 7 5 5 5 3 5 7 6 6 4 5 2 4 2 3 0 1 3 2 4 2
5 5 5 6 7 7 7 10 11 11 10 11 9 9 10 10 10 11 9 10 10 9 9 9 7 7 6 9 12 15 15 12 13 13 10 10 8 9 6 6 4 4 3 5 5 5 6 6 5 6 6 6 6 5 5 5 6 6 7 7 7 7 7 8 7 8 6 6 5 4 5 4 4 6 5 5 6 4 4 2 0 1 1 3 5
6 6 7 8 11 13 13 12 11 11 13 13 12 10 10 10 12 12 11 10 11 11 10 9 9 8 9 9 9 12 14 15 12 12 11 11 9 10 9 8 7 6 5 7 5 5 6 7 6 7 6 5 6 6 5 5 5 6 8 8 7 7 7 7 7 6 5 7 6 3 5 5 5 4 5 6 5 5 5 4 0 1 1 3 2
7 8 9 11 12 12 13 13 13 12 13 13 11 11 10 10 11 12 12 11 10 11 10 9 9 9 9 9 10 10 11 12 12 12 11 9 8 9 9 9 9 9 8 7 6 5 4 5 5 5 5 6 6 5 5 4 5 7 7 8 7 6 7 8 8 7 7 6 5 6 5 5 4 4 4 5 6 5 3 4 3 0 2 4 3
5 8 10 11 11 12 13 13 13 12 13 13 11 11 10 11 12 12 12 11 12 13 10 10 9 8 7 8 9 9 10 10 9 9 10 10 7 8 7 6 7 7 7 6 5 5 5 5 5 7 6 6 5 5 4 4 4 6 7 8 7 6 7 8 7 8 8 6 5 5 6 5 4 3 4 4 4 4 6 5 4 1 2 1 3
7 8 8 8 9 10 10 11 12 11 13 12 13 12 12 12 12 12 13 12 12 12 11 11 10 8 9 10 9 9 8 7 7 6 7 7 8 8 8 7 6 6 5 6 5 5 6 6 5 6 5 6 5 5 5 4 4 7 7 7 8 3 7 8 6 7 7 6 6 5 6 4 3 3 3 4 4 4 4 4 3 3 2 3 2
7 10 9 10 8 10 10 11 10 11 12 14 14 13 14 12 11 12 12 11 12 12 11 11 10 10 10 9 10 9 9 10 10 10 9 8 7 7 7 6 5 6 6 5 6 5 5 6 7 6 6 5 5 4 4 4 4 6 7 8 8 5 6 7 5 7 6 6 5 5 6 5 3 3 3 4 4 3 4 3 2 2 2 1 1
8 6 6 6 7 9 8 8 9 11 12 12 13 11 11 11 12 12 11 13 11 11 11 11 12 11 10 10 9 10 10 9 9 11 9 9 7 6 6 7 7 6 6 6 6 7 5 6 7 6 6 6 6 5 5 5 6 6 7 7 6 6 7 5 4 6 6 5 5 5 5 5 3 3 4 3 3 3 4 3 2 2 2 2 3
7 8 8 8 9 9 10 11 10 9 9 10 10 11 9 8 10 11 13 13 13 10 9 9 10 10 10 11 12 9 7 8 7 8 9 10 10 9 8 7 6 6 7 7 7 7 6 5 6 6 6 7 6 6 6 6 6 8 6 7 5 5 6 5 3 5 4 6 6 6 4 4 3 4 3 3 3 4 4 4 3 3 1 1 3
7 8 8 8 9 10 11 12 12 13 12 10 10 9 11 10 11 10 8 9 11 12 12 12 10 9 10 9 8 8 9 8 8 10 10 10 10 9 9 8 8 6 6 7 7 7 6 6 4 6 6 6 7 6 6 6 6 7 7 7 5 6 6 6 4 3 4 5 6 6 4 4 3 4 3 3 4 3 3 4 4 4 2 2 3
7 7 8 8 9 9 9 8 8 6 6 7 9 12 11 10 12 12 13 11 12 12 12 11 10 9 10 11 11 9 9 8 9 9 10 9 8 7 7 6 6 6 6 7 7 8 7 6 5 5 6 7 7 7 6 7 8 8 7 8 7 6 7 5 5 5 3 4 5 6 4 3 3 4 4 4 4 4 3 4 4 4 4 1 3
7 7 7 8 7 8 7 6 6 7 8 10 8 8 9 11 11 11 11 11 12 10 10 10 10 10 12 11 11 9 9 8 9 9 8 8 7 8 7 7 7 5 6 7 8 7 7 6 6 5 5 4 5 7 7 7 9 11 9 6 7 8 7 6 5 5 4 4 5 6 5 4 3 4 4 4 5 4 4 4 3 4 4 3 2
7 7 6 6 7 8 9 10 10 11 10 9 8 10 10 10 10 10 11 12 11 11 10 9 10 11 11 10 10 10 9 10 11 9 8 7 7 6 6 7 7 6 5 6 8 8 8 7 6 5 5 5 5 6 6 8 10 11 10 8 7 9 9 9 7 7 6 5 5 5 5 5 3 4 4 4 4 4 4 4 3 2 3 2 2
3 4 4 6 6 7 8 9 10 10 10 11 10 9 9 10 11 11 13 12 12 10 10 10 10 10 11 11 11 9 11 10 10 8 8 7 6 6 6 7 6 7 8 6 7 8 8 7 7 6 6 6 7 6 6 6 8 9 9 9 9 8 8 8 8 8 7 7 7 6 6 6 5 5 4 5 4 4 5 4 4 3 3 4 3
4 6 6 6 7 10 11 11 12 11 11 10 11 11 10 11 11 12 12 12 11 10 10 10 10 12 11 11 11 10 10 10 9 8 8 7 7 8 7 8 7 7 7 7 7 6 7 7 8 8 8 8 7 7 7 7 6 6 8 8 9 8 8 8 8 7 7 7 7 7 7 6 6 6 4 5 5 5 4 4 4 4 4 4 3
6 6 6 10 11 9 9 11 11 11 12 12 12 12 11 11 12 11 12 11 11 10 11 11 10 11 11 12 11 10 11 11 10 9 9 9 8 8 8 6 7 8 7 7 8 7 8 8 7 7 7 6 6 6 6 7 8 7 6 6 6 7 7 7 7 6 6 6 7 6 6 7 7 7 7 5 5 6 4 5 5 5 4 3 3
9 9 8 5 7 12 11 11 12 12 12 12 12 12 12 11 11 11 11 12 11 11 11 11 11 11 11 12 11 11 10 10 9 9 8 8 8 8 8 8 7 8 8 9 8 8 6 7 6 6 7 6 7 6 6 7 7 7 8 8 7 6 6 6 6 6 5 5 5 5 6 7 7 6 6 7 6 5 6 5 5 5 4 4 4
4 5 8 12 12 10 11 12 12 12 11 11 11 12 13 13 13 11 11 11 10 12 12 11 11 10 11 12 11 10 10 10 9 9 9 8 8 8 8 7 7 8 8 8 9 8 6 5 5 6 5 5 6 6 6 6 8 9 9 8 8 8 8 6 5 5 5 5 5 5 5 6 6 6 5 5 5 6 4 4 4 4 4 4 5
7 11 11 11 13 13 13 12 12 10 13 13 12 12 11 10 10 11 11 13 12 12 12 12 11 12 12 11 10 9 9 10 10 10 10 10 9 8 8 7 7 7 6 6 6 6 6 6 5 6 6 6 6 6 6 8 9 7 8 9 8 8 8 8 6 5 4 4 4 4 5 4 5 6 9 7 7 6 6 5 5 4 5 5 4
11 12 13 13 13 11 12 12 12 14 14 13 13 13 13 12 12 11 11 10 11 13 13 13 13 12 10 10 11 10 11 10 11 11 11 10 10 9 9 9 8 7 6 6 7 7 7 7 7 6 6 6 5 4 6 11 9 10 9 7 6 6 7 7 7 6 5 5 5 5 5 8 9 9 10 11 11 12 11 8 7 6 5 5 5
11 9 11 11 10 10 10 12 15 15 17 15 14 12 11 11 12 12 12 10 10 12 13 13 13 12 11 11 11 11 11 12 12 10 9 11 11 10 9 8 8 7 8 8 8 9 8 7 8 7 8 6 5 5 11 13 13 13 9 8 7 6 6 7 6 6 7 6 5 5 4 6 7 9 9 12 12 13 14 14 14 12 10 9 6
12 12 9 8 12 12 14 16 16 15 14 13 13 12 11 13 11 10 9 9 10 11 12 12 12 11 11 12 11 11 11 12 11 11 11 10 10 10 10 10 9 9 8 6 8 8 8 7 7 7 7 7 6 8 14 14 14 14 12 8 5 5 5 7 7 6 5 5 5 5 4 4 5 6 4 5 8 13 15 15 15 15 15 15 13
11 11 11 12 14 15 16 14 12 14 15 14 12 12 14 13 12 11 10 11 12 12 12 11 11 11 12 11 11 12 12 11 10 10 10 10 11 10 10 11 12 9 7 9 10 9 9 8 8 9 8 8 7 11 14 14 15 15 15 10 5 5 6 6 7 7 6 5 5 5 5 5 5 9 7 5 5 5 9 13 15 16 16 16 16
10 9 10 10 9 10 12 14 14 13 13 11 12 13 10 9 10 10 12 11 12 11 11 11 10 11 11 10 10 10 10 10 9 10 10 11 11 12 11 9 8 8 9 9 8 9 8 9 9 10 9 8 8 10 15 15 15 16 15 12 5 6 5 5 7 7 6 6 6 6 6 6 5 5 5 7 6 7 7 6 6 5 5 7 12
12 9 9 11 11 9 9 10 10 9 9 10 10 9 9 9 10 11 11 12 11 11 10 10 11 10 10 10 11 11 10 10 11 11 11 11 11 9 10 9 9 10 11 12 11 11 10 10 9 9 8 8 7 13 15 16 16 16 16 11 6 6 5 5 7 6 6 6 5 6 6 7 5 5 6 7 7 8 5 6 6 7 6 7 7
12 13 11 9 10 14 14 13 8 10 10 11 11 10 11 11 10 12 11 11 11 11 11 10 11 11 12 12 13 12 12 12 11 11 11 12 11 11 11 9 8 7 6 5 6 7 10 10 10 9 8 9 7 15 15 15 16 16 16 8 6 8 7 7 7 7 7 6 6 7 7 7 6 6 9 15 12 7 6 7 9 7 7 6 7
9 7 9 9 9 9 8 6 8 9 10 10 9 10 9 9 10 9 10 10 11 11 12 12 11 10 10 10 11 11 11 10 11 11 11 11 11 10 9 7 8 8 9 10 10 11 9 9 10 10 10 9 8 12 16 16 16 17 13 7 7 7 7 8 8 8 7 6 7 7 7 6 6 7 10 14 16 14 7 9 8 8 8 7 8
5 3 3 4 4 4 6 9 9 9 9 8 10 11 10 10 11 10 11 11 11 13 12 11 11 11 11 11 11 10 11 10 10 11 11 9 8 7 9 8 10 11 11 12 9 7 7 8 10 11 12 10 9 12 18 18 18 18 14 9 7 7 8 8 8 7 6 7 8 13 10 8 8 8 12 15 16 14 9 10 9 9 9 10 10
4 5 5 5 6 7 8 8 9 9 9 10 11 12 12 12 11 11 12 12 13 12 11 12 12 10 9 9 9 9 10 11 11 11 11 11 11 11 9 8 8 7 8 6 7 8 8 7 9 10 8 11 10 11 18 19 20 19 15 9 7 7 9 9 8 8 7 7 7 10 17 14 11 10 16 16 18 15 10 10 10 9 10 12 10
1 1 4 5 6 8 6 9 10 10 10 12 12 12 11 11 11 10 12 13 11 10 9 7 7 8 9 10 10 11 11 12 12 11 9 10 8 7 8 8 8 7 7 6 7 7 8 8 7 9 9 10 9 7 9 18 17 17 18 10 7 8 11 11 9 9 8 7 8 8 11 18 19 18 17 18 18 20 13 10 9 10 10 14 6
5 5 6 7 6 8 9 9 7 9 10 11 11 10 10 9 10 10 10 8 7 8 8 9 9 9 9 10 9 11 12 10 10 10 9 7 7 8 8 9 9 7 7 6 7 7 8 8 6 6 6 6 6 6 5 12 14 16 18 17 9 11 11 9 8 8 9 9 8 8 7 14 19 19 19 19 20 21 19 11 11 11 12 9 7
3 4 5 6 6 6 6 6 6 9 10 10 10 10 8 9 8 9 8 8 8 8 9 8 9 9 9 9 9 8 9 9 7 8 8 8 7 8 8 8 6 6 7 7 6 6 7 6 4 4 5 6 5 6 5 9 14 16 18 21 12 11 9 7 8 9 9 9 10 8 7 11 18 19 19 20 21 21 22 13 12 18 19 20 14
5 5 4 7 8 7 7 6 6 7 8 8 10 10 8 8 9 7 6 7 8 8 8 9 8 9 9 9 9 10 9 7 8 9 9 9 7 7 6 7 7 7 8 8 8 6 6 6 6 6 6 6 6 6 10 9 13 17 18 18 19 11 12 9 10 13 13 10 8 7 7 13 18 19 20 20 20 22 19 16 22 22 22 22 18
4 4 5 7 9 7 8 5 5 6 7 8 10 10 8 9 7 6 7 7 8 8 8 8 8 8 8 8 8 8 7 7 8 8 8 8 7 7 7 7 7 8 7 8 7 6 6 7 8 8 7 7 6 6 9 13 11 16 17 18 19 21 19 10 9 12 10 8 8 8 8 14 17 19 20 20 20 19 15 20 22 23 23 20 9
7 6 5 5 11 11 9 8 5 5 5 6 6 10 9 8 6 7 8 8 8 8 8 8 8 8 8 7 6 7 7 7 7 9 8 8 7 7 7 5 7 7 7 8 7 7 8 8 7 9 9 7 6 6 6 8 14 15 17 18 20 21 20 20 13 11 9 10 10 13 15 17 17 19 21 20 18 20 22 22 23 22 19 10 5
6 6 6 7 9 10 11 10 5 4 5 4 5 9 10 7 5 6 7 8 9 9 8 8 7 7 7 7 7 6 6 6 7 7 8 8 10 9 8 7 7 7 7 8 8 7 8 8 9 9 9 8 5 4 6 6 7 10 12 17 20 20 20 19 18 15 14 15 18 20 22 21 20 18 13 11 10 10 17 21 22 21 11 5 6
8 6 7 8 9 10 9 9 8 3 5 5 5 4 5 7 7 7 7 8 8 8 7 7 7 6 6 7 8 7 6 6 6 5 6 7 7 7 7 8 8 8 8 8 7 8 8 8 9 10 8 5 5 5 5 4 5 6 7 7 9 11 14 16 13 11 12 13 15 14 12 16 14 20 20 18 16 15 13 13 10 9 5 6 6
4 4 5 7 9 9 8 7 8 4 4 5 5 5 5 6 5 6 7 7 7 7 8 7 7 7 7 7 7 9 9 7 7 7 7 6 6 7 9 10 11 10 9 9 8 8 9 10 10 8 6 5 7 5 6 7 7 6 7 7 7 7 7 8 9 9 9 10 10 10 13 10 10 10 11 10 9 9 9 8 7 6 5 3 5
7 3 4 7 7 8 7 7 6 4 5 5 5 3 3 5 6 6 7 8 7 6 6 6 6 6 6 5 6 7 7 7 6 6 5 6 9 9 9 7 4 6 8 9 9 8 8 7 6 6 6 7 7 8 8 7 9 11 10 8 8 9 8 8 12 15 10 9 8 9 9 10 9 9 9 9 8 6 5 5 6 4 4 3 4
4 4 5 6 6 9 9 8 5 4 5 6 5 4 3 3 5 5 7 8 8 7 6 6 6 6 6 6 5 6 5 6 7 7 6 1 2 4 5 5 5 4 9 9 7 7 5 6 7 7 8 10 10 4 5 11 14 15 17 18 16 15 14 11 12 17 12 9 9 8 9 9 10 9 9 9 6 5 5 4 4 4 4 4 3
6 9 6 8 6 7 8 8 6 5 6 6 5 4 4 3 4 4 6 7 8 7 6 6 6 6 7 7 6 6 6 6 6 7 6 6 2 0 2 6 7 6 7 9 12 12 11 11 9 7 7 13 14 12 12 11 11 13 15 16 16 17 17 16 16 9 8 9 7 8 8 7 8 7 8 8 5 5 5 5 5 5 5 5 5
Wind_Direction
157 184 180 186 190 190 180 186 195 183 182 173 162 162 160 152 143 137 143 139 143 144 142 133 122 105 75 61 100 94 92 84 70 59 42 60 50 50 73 74 97 100 102 113 111 107 104 105 102 88 92 97 100 104 115 107 101 109 107 91 111 109 70 31 36 83 107 76 66 71 63 45 64 62 56 49 46 43 41 50 39 44 36 36 27
153 179 195 186 191 193 177 190 187 186 188 172 169 169 163 157 155 149 142 145 155 159 147 137 125 147 147 145 125 112 105 69 102 69 58 63 54 42 42 75 95 104 110 112 109 115 115 107 105 113 112 100 99 105 101 104 112 113 120 88 22 99 88 3 340 56 54 133 129 97 54 35 80 62 58 40 40 37 41 49 41 47 40 31 25
183 204 188 194 191 192 183 189 194 192 179 178 174 167 166 163 159 156 161 152 154 144 136 125 106 91 108 125 127 109 55 43 56 75 69 71 57 46 37 64 97 100 105 109 113 108 112 115 113 116 110 120 112 102 105 100 105 116 123 123 107 61 97 36 20 16 136 127 122 100 121 71 358 11 7 39 24 40 42 53 48 47 41 33 32
205 196 197 192 192 192 186 191 191 183 179 184 179 173 169 168 162 161 164 155 147 135 111 98 90 84 78 86 79 77 119 103 90 73 64 64 58 40 40 63 80 100 96 104 103 106 116 115 118 110 103 101 118 118 111 107 108 108 107 110 124 105 60 43 19 15 120 141 105 76 181 120 97 35 1 317 9 18 44 51 47 47 39 34 39
208 196 195 189 193 197 191 185 178 188 188 186 180 177 171 169 164 163 160 156 144 137 132 130 112 97 94 88 91 95 80 87 91 56 48 65 80 63 42 47 75 92 91 96 109 111 106 111 112 107 104 100 109 108 105 112 106 109 118 115 113 134 117 119 28 23 51 0 138 112 60 62 172 180 118 99 7 8 9 37 45 37 29 30 35
202 198 195 193 194 185 186 184 189 192 192 188 178 174 168 166 163 163 156 149 144 142 145 149 143 140 138 132 125 111 118 139 138 143 147 130 119 97 55 50 70 84 85 94 99 109 108 107 108 110 106 103 100 102 109 103 99 98 111 125 107 101 129 120 101 36 66 53 55 102 137 170 169 212 94 137 318 163 311 40 63 42 28 33 33
213 199 185 184 191 188 191 191 193 192 190 173 175 175 169 165 166 163 160 153 149 146 149 150 147 159 160 158 152 154 143 109 60 61 106 109 98 89 81 59 51 95 86 90 97 104 107 103 105 105 104 99 97 103 102 110 114 110 121 104 116 131 122 113 128 153 98 46 40 70 71 57 113 133 167 101 81 323 16 3 359 30 22 41 38
197 197 191 191 187 188 191 193 189 190 171 168 175 172 173 168 164 162 156 154 157 154 158 165 160 165 159 155 149 148 150 144 134 106 90 104 107 98 93 75 64 72 102 93 105 112 112 106 108 100 95 89 96 101 117 126 109 89 94 103 98 106 125 127 145 185 128 86 29 64 60 60 54 67 89 152 153 151 292 334 309 15 31 29 32
193 191 192 190 192 196 194 187 185 171 168 176 179 174 166 162 161 158 158 157 158 160 160 166 168 166 156 146 124 80 100 118 120 108 119 118 111 104 103 102 87 69 81 116 114 115 112 110 99 99 103 106 110 113 113 116 118 124 116 104 105 88 91 124 114 120 112 143 110 55 64 63 59 66 82 68 130 116 268 311 305 336 43 10 358
199 200 193 195 196 194 189 174 170 178 173 169 165 162 167 161 163 163 163 160 160 163 163 164 166 157 151 162 134 123 116 100 127 128 131 137 131 129 130 121 114 103 102 120 114 107 102 99 104 113 117 122 121 122 117 109 107 105 112 114 112 99 80 96 112 120 109 116 113 146 115 87 66 43 36 84 53 84 139 176 216 346 357 284 221
196 194 192 189 178 174 169 179 180 169 166 167 169 172 167 167 164 169 167 159 163 167 165 169 165 167 167 162 146 136 139 137 134 134 137 143 150 148 145 137 132 138 139 112 103 105 98 104 117 118 120 125 122 120 120 122 125 117 114 104 103 113 114 108 98 96 110 108 110 139 154 163 172 157 179 164 138 131 79 225 251 196 208 313 289
186 179 176 162 156 172 177 182 178 173 170 174 174 172 172 170 167 167 166 165 166 167 169 168 167 170 169 165 154 148 150 157 157 157 164 159 164 153 147 133 146 153 141 122 108 105 115 115 117 117 120 121 111 112 117 124 127 119 111 107 105 104 110 107 114 119 118 106 95 107 119 126 99 122 156 147 130 156 126 150 195 300 339 223 291
180 183 173 179 180 179 185 185 176 178 182 178 178 176 172 171 172 170 173 169 170 165 173 168 167 174 169 168 165 154 158 159 161 159 165 164 164 156 157 158 160 152 162 136 141 139 134 130 131 131 122 114 119 116 121 126 123 112 109 106 109 111 115 116 113 112 114 115 117 86 98 91 97 103 114 116 82 107 113 94 267 128 201 303 301
194 186 189 190 188 187 187 184 184 182 182 180 177 176 176 175 175 175 174 170 168 168 172 170 176 174 173 168 161 161 164 162 162 162 165 163 166 163 164 164 166 163 158 158 154 146 135 130 128 116 115 116 116 115 117 118 115 113 113 110 107 109 107 107 110 108 97 98 106 102 83 92 92 87 109 109 128 112 100 128 142 358 170 261 302
200 200 200 196 193 187 187 187 186 184 182 179 177 180 176 177 178 178 171 177 172 172 169 175 173 169 173 171 163 166 165 165 164 162 159 159 166 163 162 164 163 160 157 144 145 141 133 126 128 122 120 116 111 111 108 108 110 107 104 105 102 108 109 112 110 115 113 112 101 110 112 88 96 97 108 119 131 135 139 159 132 57 351 226 281
208 212 209 204 194 189 188 192 189 184 183 182 181 179 180 183 181 182 176 173 176 172 173 172 170 165 171 168 170 165 163 155 147 149 153 154 162 166 163 164 154 142 137 142 149 140 140 133 121 117 114 114 112 118 126 126 130 116 109 109 104 100 110 105 111 109 113 118 117 119 105 106 100 101 96 112 114 117 122 125 112 109 126 318 304
213 214 207 199 192 196 194 190 187 187 186 186 184 183 184 178 179 179 176 173 175 177 171 170 166 165 174 169 163 163 164 167 165 162 160 156 158 163 160 157 138 147 148 151 143 136 138 134 126 123 123 121 124 128 134 134 132 117 118 115 109 104 102 109 116 115 120 121 115 117 116 116 107 98 90 91 92 86 100 110 117 153 158 143 278
219 220 216 204 199 192 190 194 196 194 189 185 185 182 184 181 179 177 173 175 177 175 174 171 168 172 169 169 170 171 169 169 164 160 157 154 160 156 147 151 165 160 155 150 139 138 135 131 130 131 131 133 137 140 143 141 127 110 110 101 111 112 105 97 105 119 123 117 113 103 108 109 106 99 101 95 90 103 101 95 102 84 117 159 190
216 211 204 197 192 193 190 193 192 195 194 191 182 178 179 180 181 180 179 177 173 174 174 172 173 171 172 173 171 168 169 162 158 157 157 162 167 166 166 159 144 154 155 149 142 140 135 132 135 137 142 145 145 150 150 139 130 116 109 110 108 109 108 108 111 116 125 120 120 114 113 114 114 107 100 90 92 99 100 105 90 86 75 137 165
216 209 205 198 194 191 190 189 189 190 188 187 181 177 182 179 176 180 174 174 171 174 173 177 179 172 170 164 169 167 162 162 163 162 169 174 171 164 159 158 166 157 158 148 143 139 137 139 145 148 151 153 154 155 149 135 123 117 122 118 120 115 114 121 124 110 127 129 126 127 133 130 128 117 112 110 104 98 117 109 111 114 104 121 130
215 209 201 196 192 188 190 192 191 189 190 184 183 184 182 178 182 177 173 176 182 180 176 177 168 174 166 170 168 166 167 163 164 174 174 173 165 160 161 153 139 166 155 150 145 140 139 144 151 164 170 168 161 155 153 140 127 127 120 126 128 126 126 130 126 123 136 134 133 132 137 138 144 137 135 124 117 124 115 118 133 132 129 130 144
212 205 196 193 186 183 183 180 179 181 189 187 186 181 184 187 183 175 174 180 179 182 183 172 175 170 172 173 172 167 164 165 169 172 176 170 163 162 153 141 162 155 157 152 144 140 141 149 160 172 182 176 171 160 152 141 138 127 123 136 139 137 137 143 145 152 155 147 141 138 147 155 169 146 142 142 148 145 147 143 161 141 156 166 213
208 196 194 190 183 182 183 185 187 191 191 187 186 188 187 185 180 180 179 185 183 182 178 173 175 174 176 172 167 170 165 169 170 174 174 166 160 148 143 152 156 155 154 155 148 145 148 152 161 175 181 181 180 166 160 147 143 141 143 149 154 151 151 156 162 168 163 150 143 150 165 165 162 144 155 156 152 165 165 165 170 156 161 207 204
198 179 181 186 179 174 177 185 187 192 192 193 193 189 186 187 185 177 186 182 180 181 178 174 176 176 172 168 174 168 168 171 174 172 169 162 154 146 143 152 157 157 159 151 144 146 150 159 166 180 187 184 182 172 158 158 146 145 143 142 139 139 139 165 167 167 162 162 161 159 178 170 164 157 166 162 172 168 177 175 170 193 183 204 205
180 182 184 179 178 188 192 187 192 194 192 192 193 191 188 190 186 186 187 180 181 176 175 177 177 173 173 173 173 170 172 173 171 165 167 156 155 151 155 161 156 162 162 149 143 145 156 166 178 187 188 189 183 165 155 148 148 144 143 151 151 148 152 157 173 167 166 166 171 178 177 172 168 166 180 177 178 181 185 176 186 197 196 207 205
192 184 179 196 195 197 199 195 193 195 193 192 195 193 192 191 192 186 181 178 181 174 177 173 177 176 175 177 175 172 176 172 167 164 166 163 160 159 158 158 163 163 160 159 154 162 172 176 183 188 189 182 170 171 171 161 140 139 139 139 154 150 145 164 169 171 169 178 177 182 179 176 176 182 191 185 183 187 182 190 198 207 202 202 209
193 192 198 195 201 205 205 199 197 194 195 194 193 193 193 192 191 189 184 177 176 174 175 176 178 178 176 181 177 176 172 168 166 164 161 163 164 159 161 166 168 168 167 165 164 165 174 178 184 179 187 181 177 177 170 162 150 132 119 137 145 157 170 170 174 174 177 180 182 183 184 186 190 193 186 189 184 189 188 203 203 201 206 196 217
190 195 196 204 207 204 205 203 199 199 195 197 194 195 194 192 191 186 183 177 176 175 176 177 176 181 182 181 176 168 168 167 164 160 164 165 161 161 165 161 161 171 175 171 168 171 170 171 180 181 183 174 180 176 173 161 132 131 130 142 152 168 166 173 170 178 180 186 188 193 193 197 198 197 190 190 180 190 185 205 209 193 206 201 217
207 214 207 206 206 205 201 201 203 195 197 197 195 194 195 198 193 187 182 184 174 173 176 178 178 183 186 176 165 164 166 165 166 163 165 166 164 160 157 158 171 175 173 166 156 157 158 167 175 183 179 182 187 187 178 164 153 142 136 144 167 175 170 163 164 182 190 190 198 199 203 201 204 204 204 195 193 185 176 203 216 192 206 204 217
219 218 214 211 210 203 202 197 197 200 198 197 198 196 194 193 193 187 186 182 168 179 177 180 183 186 178 169 167 167 168 167 167 172 171 163 161 160 161 165 174 171 161 160 156 158 170 177 178 184 184 189 194 187 184 172 163 155 155 158 175 193 184 160 167 188 200 204 206 204 209 208 210 212 217 218 215 214 208 194 197 191 198 200 208
231 231 221 214 208 205 198 198 203 200 200 198 198 193 185 192 195 190 185 179 175 177 182 182 185 182 174 168 169 173 168 172 175 168 163 164 164 164 164 164 165 168 169 167 167 171 176 179 184 185 188 193 192 184 185 179 173 174 171 175 190 192 176 167 190 195 206 205 209 210 210 220 220 221 222 224 224 224 226 221 214 205 195 188 192
231 230 220 208 207 203 201 204 204 201 198 197 194 189 184 194 188 185 180 169 178 183 186 187 184 176 173 173 175 170 171 175 170 170 167 166 162 162 167 169 167 169 176 166 172 181 180 183 184 189 194 194 194 193 191 187 184 185 182 185 190 191 187 188 187 204 211 202 209 214 220 210 224 222 211 227 232 231 231 233 236 235 231 219 204
232 228 216 211 208 206 204 204 199 200 199 198 182 179 194 185 179 182 165 175 185 186 186 186 181 178 178 175 172 172 175 173 172 167 166 165 167 168 168 171 179 176 159 172 186 180 187 184 187 191 198 198 198 195 194 191 192 194 191 182 192 193 192 206 182 211 211 207 202 217 229 223 219 222 219 212 217 241 244 237 237 239 238 237 237
239 233 222 218 210 208 206 203 202 199 194 184 183 188 184 175 171 164 174 178 181 188 187 184 177 180 175 172 169 170 173 171 167 167 166 170 172 180 177 172 163 160 176 182 184 188 185 189 192 196 200 198 196 196 196 195 198 200 197 187 187 195 192 181 200 210 209 206 205 211 222 232 213 210 215 209 211 218 224 237 246 254 254 259 247
236 235 223 213 205 202 201 202 199 182 172 168 179 173 155 160 163 167 173 175 180 177 182 179 180 177 171 168 168 170 171 171 175 173 170 172 174 172 175 175 172 179 182 187 187 188 194 193 196 198 199 198 199 197 198 198 202 203 204 193 171 174 199 213 209 212 210 203 207 212 222 228 218 213 217 209 205 212 210 223 232 239 239 235 239
230 225 224 200 194 198 197 197 171 166 174 175 175 163 162 168 163 170 172 175 174 179 183 181 183 181 178 175 173 174 175 175 172 171 173 176 177 178 177 174 176 182 186 183 200 197 197 196 196 194 196 204 202 197 200 201 204 206 205 197 170 195 209 212 217 213 209 203 202 212 219 226 220 220 224 226 220 202 210 217 231 241 243 244 241
241 216 224 206 203 197 187 157 162 168 164 173 160 158 156 149 159 166 164 170 173 182 187 187 186 180 180 176 175 174 174 170 172 174 178 177 176 178 176 167 178 186 188 195 199 201 198 193 194 195 199 208 201 198 200 204 206 207 204 204 190 201 211 214 222 212 208 204 202 207 216 220 223 225 223 229 230 220 205 218 225 233 235 239 245
232 223 219 177 165 141 144 155 159 165 165 152 151 154 152 158 167 166 169 176 182 191 186 181 181 180 180 176 175 173 172 172 171 178 179 181 177 179 183 176 185 188 198 203 200 199 200 198 196 200 203 203 204 200 202 205 207 206 205 206 199 200 217 219 225 218 206 209 210 215 215 218 223 228 227 229 229 227 217 212 217 227 234 239 243
205 180 169 162 157 152 149 143 150 155 157 152 153 155 159 167 170 171 174 180 190 188 181 185 184 174 166 162 164 166 170 172 178 183 180 182 186 188 184 180 195 196 204 185 189 199 203 204 206 208 198 204 213 205 205 207 206 206 205 204 196 204 221 227 221 228 215 210 216 220 228 228 226 228 230 229 229 226 227 220 218 223 234 239 236
73 99 151 146 134 119 131 148 160 163 152 153 153 158 165 168 173 170 180 191 187 181 178 166 155 159 164 167 170 173 177 179 183 182 182 188 178 167 171 179 188 193 193 188 192 200 207 213 206 209 214 215 219 218 211 214 211 208 208 202 198 203 224 227 222 225 225 226 218 216 227 231 234 233 230 230 231 230 227 223 216 226 233 244 226
151 145 136 133 142 146 154 159 154 146 148 149 153 155 167 167 166 176 188 177 162 157 159 160 161 162 167 172 173 176 179 183 182 180 174 168 167 175 172 178 186 188 188 191 190 199 211 219 207 212 216 229 224 228 225 220 219 215 214 212 209 217 224 224 225 228 228 230 227 221 216 225 231 235 236 236 235 234 235 226 218 223 230 240 237
75 114 121 116 111 107 107 104 125 141 142 148 148 154 156 157 164 181 179 163 155 153 154 156 160 166 167 169 172 175 177 174 165 154 159 175 180 175 178 176 172 175 185 196 196 201 210 224 222 216 216 227 226 221 218 225 225 224 223 220 220 224 216 214 231 237 234 234 232 222 215 218 226 233 237 241 241 240 237 236 229 231 237 241 243
116 99 99 120 115 109 108 113 121 130 138 144 146 149 153 154 173 178 146 140 144 148 153 156 158 160 167 170 172 169 170 163 164 168 168 173 164 163 164 161 164 174 186 197 202 199 205 223 234 237 228 226 222 224 221 221 228 232 235 236 235 233 211 208 219 238 237 236 235 223 219 215 226 231 235 238 241 242 242 242 243 243 243 243 245
71 98 120 111 106 105 101 93 101 120 136 144 148 145 149 160 165 134 135 136 143 149 147 151 159 165 164 167 169 167 161 159 161 160 164 159 164 167 165 172 172 177 186 199 207 198 208 223 231 241 235 228 218 212 224 224 224 231 238 240 243 244 235 216 215 239 244 239 231 223 216 217 225 233 236 239 244 245 243 245 246 246 246 248 236
122 118 114 120 127 125 114 96 82 100 114 132 139 142 148 151 154 142 144 144 141 141 144 153 160 162 164 161 153 157 161 162 161 159 162 165 163 159 167 177 172 184 189 199 207 196 210 222 229 239 244 233 211 206 214 222 228 231 233 237 241 243 247 244 237 238 236 238 234 228 225 225 231 238 238 245 247 247 246 246 246 246 246 237 177
109 102 108 119 113 110 113 108 78 75 95 100 122 142 149 165 147 138 137 135 138 139 150 158 156 156 154 146 147 151 157 162 162 169 173 172 169 173 177 175 179 193 193 199 207 199 213 219 230 239 241 238 210 198 212 212 221 234 237 238 240 243 245 247 252 259 247 233 237 239 239 236 235 234 233 232 233 233 242 247 248 248 241 202 169
121 141 135 123 119 111 112 115 107 71 95 93 99 82 122 135 140 141 136 139 141 146 146 148 151 142 139 148 152 160 158 158 163 164 167 164 165 170 173 175 185 192 198 203 206 205 213 219 231 240 243 243 234 222 215 208 211 220 233 241 248 251 251 251 252 254 265 265 258 246 232 232 228 228 226 226 229 234 240 243 241 240 212 183 184
100 110 102 95 101 112 112 107 106 92 86 89 84 98 118 123 129 133 133 132 136 145 150 153 149 147 153 158 159 160 159 164 173 169 168 168 173 175 181 190 190 192 192 206 202 210 213 218 228 236 244 255 250 237 220 211 213 208 223 222 230 238 238 238 246 253 253 253 256 257 252 243 235 235 233 230 229 220 223 225 223 215 195 183 190
109 93 97 117 124 115 120 116 116 113 100 93 90 82 109 126 133 134 135 131 135 133 132 136 140 142 151 159 155 162 168 165 170 178 189 180 177 186 196 211 216 185 197 195 199 214 220 222 219 224 219 249 250 242 236 203 206 204 205 208 220 222 225 228 232 238 248 256 255 252 246 245 235 234 231 231 227 218 224 221 220 202 157 153 175
90 94 93 94 108 125 127 122 128 126 117 112 104 91 83 112 127 140 134 131 134 128 127 139 142 143 145 145 145 150 153 157 163 172 168 196 354 181 201 191 212 191 202 218 195 210 201 191 210 226 199 219 241 232 188 206 214 218 222 222 221 221 221 225 234 241 240 249 246 243 244 239 241 239 238 238 232 217 219 212 221 208 197 194 182
138 114 108 111 119 120 118 121 136 133 122 121 110 104 95 95 126 134 129 131 131 127 125 134 140 147 155 151 146 146 153 151 155 161 166 174 204 337 230 212 198 196 204 213 223 228 216 199 196 233 231 234 250 258 255 253 246 237 236 238 243 244 244 243 242 239 243 243 248 246 249 243 247 247 246 246 222 212 216 214 218 207 214 208 213